STARLINK-11121

decayed
NORAD ID: 59946 Int'l Des: 2024-107 Owner: SPXS Country: US Constellation: starlink
LEOCIRCULAR
Gruppe

Über STARLINK-11121

Beschreibung wird geladen...

Höhenverlauf

Altitude vs Time

uPlot chart will show altitude changes over time

Zweizeiliger Elementsatz

1 59946U 24107B 25092.56929212 .42396816 12306-4 43618-2 0 9990
2 59946 53.1410 122.6586 0002637 326.4675 187.6616 16.37082135 48777
Epoch: 2. Apr. 2025 • Age: 4062 hours

Aktueller Status

Position data unavailable
Startdatum 5. Juni 2024
Alter 1.2 years
Verglühungsdatum 2. Apr. 2025
Typ internet

Technische Details

Klassifizierung Payload
Masse 960.00 kg
Trockenmasse 910.00 kg
Gesamtmasse 960.00 kg
Länge 0.30 m
Durchmesser 4.10 m
Spannweite 29.00 m
Form Box + pan
Hersteller SPXS
Bus-Typ Starlink V2MD
Phasenstatus Reentered
Besitzer/Staat SPXS/US

Große Konstellationen

Loading constellations...